EW3553 Weather Reports


Display with metric or nautical units.
time (UTC)temp
F
wind
direction
speed
MPH
gust
MPH
rain 1hr
in
rain 24hr
in
rain mn
in
humidity
%
barometer
mb
20260506131507 59 157 3.0 11.0 0.00 0.00 0.00 87 1010.2
20260506130005 58 190 2.0 16.0 0.00 0.00 0.00 88 1010.2
20260506124504 58 169 2.0 9.0 0.00 0.00 0.00 87 1010.3
20260506123002 59 101 1.0 9.0 0.00 0.00 0.00 88 1010.3
20260506121501 58 180 2.0 9.0 0.00 0.00 0.00 90 1010.6
20260506120106 57 184 1.0 7.0 0.00 0.00 0.00 91 1010.7
20260506114558 57 193 2.0 9.0 0.00 0.00 0.00 92 1010.7
20260506113100 57 188 3.0 10.0 0.00 0.00 0.00 92 1010.5
20260506111559 56 153 3.0 10.0 0.00 0.00 0.00 93 1010.4
20260506110057 55 157 1.0 7.0 0.00 0.00 0.00 93 1010.7
20260506104559 55 167 3.0 11.0 0.00 0.00 0.00 93 1010.5
20260506103055 55 192 1.0 8.0 0.00 0.00 0.00 93 1010.4
20260506101553 55 168 1.0 8.0 0.00 0.00 0.00 93 1010.3
20260506100059 55 159 3.0 8.0 0.00 0.00 0.00 93 1010.3
20260506094602 55 195 1.0 4.0 0.00 0.00 0.00 92 1010.3
20260506093047 55 147 1.0 7.0 0.00 0.00 0.00 92 1010.4
20260506091545 56 162 2.0 10.0 0.00 0.00 0.00 92 1010.4
20260506090044 56 153 2.0 9.0 0.00 0.00 0.00 92 1010.5
20260506084544 56 145 1.0 7.0 0.00 0.00 0.00 91 1010.5
20260506083042 56 149 2.0 7.0 0.00 0.00 0.00 91 1010.7
20260506081640 56 170 0.0 5.0 0.00 0.00 0.00 91 1010.7
20260506073037 56 191 2.0 9.0 0.00 0.00 0.00 90 1010.8
20260506071536 56 177 4.0 10.0 0.00 0.00 0.00 90 1011.0
20260506061531 56 178 1.0 6.0 0.00 0.00 0.00 89 1010.9
20260506044533 57 169 2.0 15.0 0.00 0.00 0.00 86 1011.3
20260506043023 58 214 2.0 10.0 0.00 0.00 0.00 86 1011.2
20260506041522 58 168 1.0 10.0 0.00 0.00 0.00 85 1011.3
20260506040017 58 180 3.0 8.0 0.00 0.00 0.00 85 1011.3
20260506034516 58 211 2.0 12.0 0.00 0.00 0.00 84 1011.2
20260506033015 59 225 3.0 11.0 0.00 0.00 0.00 83 1011.1
20260506031517 59 222 3.0 14.0 0.00 0.00 0.00 83 1011.0
20260506030015 59 173 2.0 7.0 0.00 0.00 0.00 83 1011.0
20260506024518 60 232 3.0 12.0 0.00 0.00 0.00 83 1011.1
20260506023018 60 197 2.0 10.0 0.00 0.00 0.00 82 1011.2
20260506021514 60 169 3.0 8.0 0.00 0.00 0.00 82 1011.1
20260506020011 60 255 2.0 9.0 0.00 0.00 0.00 80 1011.1
20260506014506 60 170 2.0 12.0 0.00 0.00 0.00 80 1011.0
20260506013003 60 146 3.0 14.0 0.00 0.00 0.00 79 1010.9
20260506011623 60 155 3.0 16.0 0.00 0.00 0.00 79 1010.8
20260506004549 61 211 4.0 14.0 0.00 0.00 0.00 77 1010.5
20260506003045 62 182 3.0 11.0 0.00 0.00 0.00 76 1010.3
20260506001543 63 178 3.0 8.0 0.00 0.00 0.00 75 1010.0
20260506000041 62 143 3.0 10.0 0.00 0.00 0.00 74 1009.8
20260505234532 63 202 5.0 13.0 0.00 0.00 0.00 74 1009.6
20260505233032 63 209 3.0 12.0 0.00 0.00 0.00 72 1009.2
20260505231527 63 170 5.0 11.0 0.00 0.00 0.00 73 1008.9
20260505230019 63 161 6.0 16.0 0.00 0.00 0.00 74 1008.9
20260505224514 62 178 4.0 12.0 0.00 0.00 0.00 74 1009.0
20260505223016 62 211 5.0 18.0 0.00 0.00 0.00 74 1008.8
20260505221505 63 163 6.0 16.0 0.00 0.00 0.00 72 1008.8
20260505220108 64 167 5.0 14.0 0.00 0.00 0.00 72 1008.6
20260505214558 64 187 5.0 16.0 0.00 0.00 0.00 71 1008.6
20260505213050 64 174 5.0 18.0 0.00 0.00 0.00 71 1008.7
20260505211546 64 221 5.0 16.0 0.00 0.00 0.00 71 1008.4
20260505210049 64 200 6.0 16.0 0.00 0.00 0.00 72 1008.4
20260505204542 64 226 4.0 16.0 0.00 0.00 0.00 72 1008.5
20260505203034 65 203 4.0 14.0 0.00 0.00 0.00 71 1008.6
20260505201528 65 165 4.0 8.0 0.00 0.00 0.00 70 1008.6
20260505200024 65 191 5.0 14.0 0.00 0.00 0.00 71 1008.8
20260505194522 65 157 5.0 12.0 0.00 0.00 0.00 71 1009.1
20260505193025 66 211 5.0 15.0 0.00 0.00 0.00 69 1009.2
20260505191512 65 115 4.0 11.0 0.00 0.00 0.00 71 1009.6
20260505190008 65 168 4.0 14.0 0.00 0.00 0.00 71 1009.8
20260505184502 65 151 4.0 16.0 0.00 0.00 0.00 71 1010.2
20260505183059 66 227 4.0 11.0 0.00 0.00 0.00 70 1010.3
20260505181553 66 161 4.0 14.0 0.00 0.00 0.00 71 1010.5
20260505180049 65 103 3.0 11.0 0.00 0.00 0.00 72 1010.5
20260505174544 66 148 4.0 12.0 0.00 0.00 0.00 72 1010.6
20260505173040 66 167 3.0 12.0 0.00 0.00 0.00 71 1010.7
20260505171544 67 177 1.0 12.0 0.00 0.00 0.00 70 1010.8
20260505170039 67 158 2.0 11.0 0.00 0.00 0.00 69 1010.8
20260505164553 68 231 1.0 9.0 0.00 0.00 0.00 69 1010.9
20260505163037 67 134 1.0 8.0 0.00 0.00 0.00 70 1010.9
20260505161548 69 252 2.0 8.0 0.00 0.00 0.00 68 1011.2
20260505153024 67 128 1.0 5.0 0.00 0.00 0.00 71 1011.4
20260505151519 66 127 2.0 9.0 0.00 0.00 0.00 72 1011.6